THOR BURNER 2 R/B

Satellite information

Favourite Embed

Satellite Type and Status

ROCKET BODYIN ORBIT

Key statistics

Satellite THOR BURNER 2 R/B at a glance.

Uptime

19336

Days in orbit

Revolutions

≈ 14.2

Per day

Orbit

SSO

Sun Synchronous Orbit

Inclination

98.6

Latest

Satellite identification and parameters

Extended collection of information and parameters for THOR BURNER 2 R/B.

Object identification

Identified? True

Debris? False

Object name: THOR BURNER 2 R/B

International designator: 1972-089B

Object number (NORAD): 6276

Object ID (CCSDS): 6276

Country: UNITED STATES OF AMERICA (US)

Current information (Y/N): Y

RCS size: LARGE

Orbital parameters

Period: 101.262 minutes

Inclination: 98.5722 deg

SMA: 7196.55 km

Apoapsis: 845.239 km

Periapsis: 791.592 km

RAAN: 97.5832 deg

Eccentricy: 0.00372727

Argument of periapsis: 69.3576 deg

Mean anomaly: 291.1593 deg

Mean motion: 14.22054358 rev/day

Mean motion (dot): 0.0000022 rev/day2

B* drag term: 0.00011759193 1/REarth

Two-line elements (TLE)

Creation date: Oct. 18, 2025, 2:17 a.m.

Reference frame: TEME

Reference center: EARTH

Epoch: Oct. 17, 2025, 11:32 p.m. UTC

TLE line 0: 0 THOR BURNER 2 R/B

TLE line 1: 1 06276U 72089B 25290.98087913 .00000220 00000-0 11759-3 0 9990

TLE line 2: 2 06276 98.5722 97.5832 0037273 69.3576 291.1593 14.22054358741947

Live tracking on map

Real-time ground track for satellite THOR BURNER 2 R/B.

In-orbit conjunctions

A list of the most updated potential collisions computed for object THOR BURNER 2 R/B.

Target Orbit TCA Probability of collision Miss distance Type
CZ-6A DEB LEO 2025-10-03 09:36:44 0.0002695213 186.0 (m) DEBRIS
QUAKESAT SSO 2025-04-20 03:21:36 0.00278202 74.0 (m) PAYLOAD
PEGASUS R/B LEO 2025-03-17 11:55:44 0.000168029 87.0 (m) ROCKET BODY
THORAD AGENA D DEB SSO 2025-01-14 06:59:57 0.0001831169 46.0 (m) DEBRIS
METEOR 1-5 DEB LEO 2024-12-15 15:08:30 0.0001402006 165.0 (m) DEBRIS

Associated space launch

Military meteorological satellite

THOR BURNER 2 R/B was lifted into orbit during the mission ‘Thor Burner 2A | DSAP-5B F3’, on board a Thor Burner 2A space rocket.

The launch took place on Nov. 9, 1972, 3:23 a.m. from Space Launch Complex 10W.

For more information about the launch, click the button.

Launch to space Thor Burner 2A | DSAP-5B F3
Thor Burner 2A | DSAP-5B F3

Agency: N/A

Status: Launch Successful

Launch date: Nov. 9, 1972, 3:23 a.m. UTC

Rocket: Thor Burner 2A

Launch pad: Space Launch Complex 10W

Location: Vandenberg SFB, CA, USA

...

Latest news about this satellite

There are no fresh news available about this satellite. Check back as we update our databases every day.


Newsletter sign-up

Weekly statistics, charts and insights to help you stay on top of the space industry.